This demonstration page uses our WeatherBlox Daily Observations layout. Learn more.

Left ArrowRight Arrow

Hourly Observations for March 29, 2016

Temp ( °F °C ) Dew Point ( °F °C ) Humidity (%) Winds ( mph kmh ) Pressure ( in mb ) Visibility ( mi km ) Precip ( " mm )
12:53 am 00:53 Cloudy 46 7.8 37 2.8 71 71 NNW 5 7 30.21 1023 10 16 N/A
1:53 am 01:53 Mostly Clear 43 6.1 36 2.2 76 76 NNW 6 9 30.22 1023 10 16 N/A
2:53 am 02:53 Clear 39 3.9 35 1.7 86 86 N 5 7 30.22 1023 10 16 N/A
3:53 am 03:53 Clear 38 3.3 34 1.1 86 86 NNW 5 7 30.23 1024 10 16 N/A
4:53 am 04:53 Clear 37 2.8 33 0.6 86 86 NNW 3 6 30.24 1024 10 16 N/A
5:53 am 05:53 Clear 33 0.6 31 -0.6 92 92 NNW 6 9 30.26 1025 10 16 N/A
6:53 am 06:53 Clear 31 -0.6 29 -1.7 92 92 NNW 5 7 30.28 1026 10 16 N/A
7:53 am 07:53 Sunny 34 1.1 32 undefined 92 92 N N/A 30.31 1026 7 11 N/A
8:53 am 08:53 Sunny 40 4.4 34 1.1 79 79 N 3 6 30.33 1027 10 16 N/A
9:53 am 09:53 Sunny 44 6.7 35 1.7 71 71 NNE 6 9 30.35 1028 10 16 N/A
10:53 am 10:53 Sunny 47 8.3 34 1.1 61 61 N N/A 30.35 1028 10 16 N/A
11:53 am 11:53 Sunny 50 10 32 undefined 50 50 NNE 8 13 30.36 1028 10 16 N/A
12:53 pm 12:53 Sunny 53 11.7 32 undefined 45 45 N 8 13 30.34 1028 10 16 N/A
1:35 pm 13:35 Mostly Sunny 57 13.9 32 undefined 39 39 NE 12 19 30.33 1027 N/A N/A
1:53 pm 13:53 Sunny 57 13.9 32 undefined 39 39 N 15 24 30.32 1027 N/A N/A
2:53 pm 14:53 Sunny 57 13.9 31 -0.6 37 37 N 9 15 30.32 1027 10 16 N/A
3:53 pm 15:53 Sunny 57 13.9 30 -1.1 36 36 N 8 13 30.29 1026 10 16 N/A
4:53 pm 16:53 Sunny 58 14.4 29 -1.7 33 33 VRB 7 11 30.27 1025 10 16 N/A
5:53 pm 17:53 Sunny 57 13.9 29 -1.7 34 34 NNE 9 15 30.27 1025 10 16 N/A
6:53 pm 18:53 Sunny 56 13.3 25 -3.9 30 30 NE 6 9 30.25 1024 10 16 N/A
7:53 pm 19:53 Sunny 52 11.1 27 -2.8 38 38 NE 5 7 30.25 1024 10 16 N/A
8:53 pm 20:53 Clear 44 6.7 34 1.1 68 68 N N/A 30.24 1024 10 16 N/A
9:53 pm 21:53 Clear 43 6.1 39 3.9 86 86 N N/A 30.25 1024 10 16 N/A
10:53 pm 22:53 Clear 40 4.4 33 0.6 77 77 N N/A 30.25 1024 10 16 N/A
11:53 pm 23:53 Clear 41 5 30 -1.1 65 65 E 3 6 30.23 1024 10 16 N/A

Powered by AerisWeather